Regional Weather Roundup
Issued by NWS

Home | Current Version | Previous Version | Graphics & Text | Print | Product List | Glossary On
Versions: 1 2 3 4 5 6 7 8 9 10 11 12 13 14 15 16 17 18 19 20 21 22 23 24 25 26 27 28 29 30 31 32 33 34 35 36 37 38 39 40 41 42 43 44 45 46 47 48 49 50
220
ASUS43 KDTX 272310
RWRMI
MICHIGAN HOURLY REGIONAL WEATHER ROUNDUP
NATIONAL WEATHER SERVICE DETROIT/PONTIAC MI
700 PM EDT TUE SEP 27 2016

NOTE: "FAIR" INDICATES FEW OR NO CLOUDS BELOW 12,000 FEET WITH NO
SIGNIFICANT WEATHER AND/OR OBSTRUCTION TO VISIBILITY.

MIZ047>049-052>055-059>063-066>070-074>076-081>083-280000-
SOUTHEAST LOWER MICHIGAN

CITY           SKY/WX    TMP DP  RH WIND       PRES   REMARKS
ADRIAN         CLEAR     65  33  30 W5        29.78R
ALMA           CLOUDY    57  48  72 W10       29.75S
ANN ARBOR      PTCLDY    62  36  37 SW7       29.76R
BAD AXE        CLOUDY    56  47  71 W3        29.76R
CARO           CLOUDY    57  46  65 W5        29.76R
DETROIT CITY   CLOUDY    67  33  28 W9        29.76R
DETROIT        CLOUDY    66  34  30 SW13      29.77R
FLINT          CLOUDY    58  46  64 W6        29.77R
GROSSE ILE     CLEAR     66  34  30 W5        29.76R
HILLSDALE      PTCLDY    63  32  31 W6        29.76S
HOWELL         CLOUDY    59  46  62 NW3       29.77R

CITY           SKY/WX    TMP DP  RH WIND       PRES   REMARKS
JACKSON        CLOUDY    63  37  38 W8        29.77R
LAMBERTVILLE   CLEAR     66  38  35 CALM      29.77S
LANSING        CLOUDY    59  44  57 W5        29.77R
LAPEER         CLOUDY    60  43  52 W9        29.77R
MASON          CLOUDY    60  45  58 W5        29.76R
MONROE         CLEAR     64  38  37 W5        29.76R
MT. CLEMENS    MOCLDY    65  36  34 W8        29.74R
PONTIAC        CLOUDY    62  42  47 NW7       29.76R
PORT HURON     CLOUDY    61  45  55 CALM      29.76R
MIDLAND        CLOUDY    56  46  70 SW6       29.74R
TROY           CLOUDY    67  32  27 W5        29.78R
SAGINAW HB     CLOUDY    59  45  58 SW8       29.75R
$$
MIZ043>046-050>051-056>058-064>065-071>073-077>080-280000-
SOUTHWEST LOWER MICHIGAN

CITY           SKY/WX    TMP DP  RH WIND       PRES   REMARKS
BATTLE CREEK   CLOUDY    62  46  55 NW7       29.76R
BENTON HARBOR  CLOUDY    63  47  55 VRB5      29.75R
BIG RAPIDS     CLOUDY    54  49  84 SW3       29.73R
COLDWATER      PTCLDY    63  33  32 W6        29.77R
FREMONT        CLOUDY    54  48  82 S3        29.73S
HOLLAND        CLOUDY    60  46  59 W7        29.77R
GRAND RAPIDS   CLOUDY    59  44  57 W14       29.76R
IONIA          CLOUDY    57  44  61 W6        29.75R
KALAMAZOO      MOCLDY    62  43  49 NW8       29.77R
LUDINGTON      LGT RAIN  54  49  85 W9G18     29.71R
MARSHALL       CLOUDY    62  38  40 W5        29.76R
MOUNT PLEASANT CLOUDY    56  47  71 SW6       29.74R
MUSKEGON       CLOUDY    59  45  59 W12G20    29.74R
SOUTH HAVEN    CLOUDY    62  49  63 NW5       29.76R
$$
MIZ016>042-280000-
NORTHERN LOWER MICHIGAN

CITY           SKY/WX    TMP DP  RH WIND       PRES   REMARKS
ALPENA         CLOUDY    56  49  77 S7        29.70R
BEAVER ISLAND  RAIN      51  49  93 CALM      29.65R
BELLAIRE       LGT RAIN  53  51  93 CALM      29.69R
CADILLAC       RAIN      51  49  91 SW8       29.70R
CHARLEVOIX     LGT RAIN  52  49  90 S5        29.69R
FRANKFORT      LGT RAIN  54  49  82 W6        29.68S
GAYLORD        LGT RAIN  50  47  89 W5        29.68R FOG
GRAYLING       DRIZZLE   52  50  94 SW8       29.70R
HARBOR SPRINGS LGT RAIN  51  49  93 W5        29.66R
HOUGHTON LAKE  CLOUDY    52  48  86 SW9       29.72R
MANISTEE       RAIN      52  49  89 W7        29.71R
OSCODA         CLOUDY    53  51  91 SW10      29.72R
PELLSTON       LGT RAIN  53  50  89 CALM      29.66R
ROGERS CITY    RAIN      54  50  85 S7        29.68R
TRAVERSE CITY  LGT RAIN  53  50  89 SW3       29.68R
$$
MIZ007>008-015-280000-
EASTERN UPPER MICHIGAN

CITY           SKY/WX    TMP DP  RH WIND       PRES   REMARKS
KINROSS        LGT RAIN  52  50  93 CALM      29.65R
MACKINAC ISLAN FLURRIES  52  52 100 W5        29.65R
NEWBERRY       DRIZZLE   51  50  97 SW7       29.62R
S. S. MARIE    LGT RAIN  54  52  93 CALM      29.64R
MUNISING         N/A     54  51  90 SW6       29.60R
$$
MIZ004>006-011>014-085-280000-
CENTRAL UPPER MICHIGAN

CITY           SKY/WX    TMP DP  RH WIND       PRES   REMARKS
MANISTIQUE     LGT RAIN  51  49  93 W3        29.63R
ESCANABA       CLOUDY    52  49  89 W8        29.64R
MENOMINEE      LGT RAIN  52  50  93 VRB3      29.68R
SAWYER-GWINN   CLOUDY    52  46  82 W7        29.63R
$$
MIZ001>003-009>011-084-280000-
WESTERN UPPER MICHIGAN

CITY           SKY/WX    TMP DP  RH WIND       PRES   REMARKS
IRON MOUNTAIN  CLOUDY    51  45  79 NW10      29.65R
HOUGHTON       LGT RAIN  53  50  89 NW14      29.62R
COPPER HARBOR    N/A     57  53  86 NE14      29.59R
IRONWOOD       LGT RAIN  48  47  96 W8        29.72R FOG
$$

ABBREVIATIONS USED IN REMARKS
   TC - TEMPERATURE IN CELSIUS
  WCI - WIND CHILL INDEX
   HX - HEAT INDEX
  VSB - VISIBILITY





USA.gov is the U.S. government's official web portal to all federal, state and local government web resources and services.